Lewistown, MT

10:50 PM MDT on July 25, 2017 (GMT -0600)
Lewistown Municipal

Weather History for KLWT - February, 2014

Change the Weather History Date:

Monday, February 24, 2014

  Actual Average Record
Temperature  
Mean Temperature 2 °F 27 °F  
Max Temperature 6 °F 38 °F 67 °F (1995)
Min Temperature -2 °F 16 °F -26 °F (1922)
Degree Days  
Heating Degree Days 63 38  
Month to date heating degree days 1223 949  
Since 1 July heating degree days 5837 5654  
Cooling Degree Days 0 0  
Month to date cooling degree days 0 0  
Year to date cooling degree days 0 0  
Moisture  
Dew Point -3 °F    
Average Humidity 82    
Maximum Humidity 95    
Minimum Humidity 68    
Precipitation  
Precipitation 0.10 in 0.01 in 0.23 in (1977)
Month to date precipitation 0.26 0.37  
Year to date precipitation 1.25 0.94  
Snow  
Snow 0.00 in - - ()
Snow Depth 3.00 in    
Sea Level Pressure  
Sea Level Pressure 30.34 in    
Wind  
Wind Speed 4 mph (NNW)    
Max Wind Speed 12 mph    
Max Gust Speed 14 mph    
Visibility 6 miles    
Events Snow    
T = Trace of Precipitation, MM = Missing Value Source: NWS Daily Summary

Daily Weather History Graph

Daily Weather History Graph

Search for Another Location

Airport or City:

Trip Planner

Search our weather history database for the weather conditions in past years. The results will help you decide how hot, cold, wet, or windy it might be!

Date:

Astronomy

Feb. 24, 2014 Rise Set
Actual Time 7:06 AM MST 5:56 PM MST
Civil Twilight 6:36 AM MST 6:26 PM MST
Nautical Twilight 6:00 AM MST 7:02 PM MST
Astronomical Twilight 5:25 AM MST 7:37 PM MST
Moon 3:20 AM MST (2/24) 12:48 PM MST (2/24)
Length of Visible Light 11h 50m
Length of Day
10h 49m
Waning Crescent, 27% of the Moon is Illuminated
Feb 24
Waning Crescent
Mar 1
New
Mar 8
First Quarter
Mar 16
Full
Mar 23
Last Quarter

Hourly Weather History & Observations

Time (MST) Temp. Windchill Dew Point Humidity Pressure Visibility Wind Dir Wind Speed Gust Speed Precip Events Conditions
12:07 AM 6.1 °F -5.6 °F 1.9 °F 83% 30.02 in 2.0 mi East 6.9 mph - 0.00 in Snow Light Snow
12:14 AM 6.1 °F -6.8 °F 1.9 °F 83% 30.03 in 1.5 mi East 8.1 mph - 0.00 in Snow Light Snow
12:45 AM 5.0 °F -8.1 °F 1.9 °F 87% 30.03 in 1.2 mi NNE 8.1 mph - 0.01 in Snow Light Snow
12:54 AM 3.9 °F -8.2 °F 1.0 °F 88% 30.25 in 1.5 mi North 6.9 mph - 0.01 in Snow Light Snow
1:54 AM 3.0 °F -11.5 °F -0.0 °F 87% 30.27 in 1.8 mi North 9.2 mph - 0.02 in Snow Light Snow
2:05 AM 3.0 °F -11.5 °F -0.0 °F 87% 30.05 in 1.2 mi North 9.2 mph - 0.01 in Snow Light Snow
2:54 AM 1.9 °F -10.6 °F -0.0 °F 91% 30.29 in 1.2 mi North 6.9 mph - 0.02 in Snow Light Snow
3:01 AM 1.9 °F -11.8 °F -0.9 °F 88% 30.05 in 1.2 mi North 8.1 mph - 0.01 in Snow Light Snow
3:54 AM 1.9 °F -11.8 °F -2.0 °F 83% 30.30 in 1.5 mi North 8.1 mph - 0.02 in Snow Light Snow
4:54 AM 1.0 °F -12.9 °F -2.9 °F 83% 30.35 in 1.8 mi North 8.1 mph - 0.01 in Snow Light Snow
5:25 AM -0.0 °F -13.0 °F -4.0 °F 83% 30.13 in 2.0 mi North 6.9 mph - 0.01 in Snow Light Snow
5:54 AM -0.9 °F -12.7 °F -4.0 °F 87% 30.40 in 2.5 mi North 5.8 mph - 0.01 in Snow Light Snow
6:54 AM -0.9 °F -12.7 °F -6.0 °F 79% 30.42 in 2.0 mi NNW 5.8 mph - 0.01 in Snow Light Snow
7:14 AM -0.9 °F -8.9 °F -5.1 °F 83% 30.19 in 3.0 mi NNW 3.5 mph - 0.00 in Snow Light Snow
7:52 AM -0.4 °F -12.0 °F -5.8 °F 78% 30.20 in 2.0 mi West 5.8 mph - 0.00 in Snow Light Snow
7:54 AM -0.9 °F -12.7 °F -5.1 °F 83% 30.46 in 2.0 mi West 5.8 mph - 0.00 in Snow Light Snow
8:36 AM -0.9 °F -11.0 °F -6.0 °F 79% 30.23 in 4.0 mi Variable 4.6 mph - 0.00 in   Haze
8:54 AM -0.9 °F -16.4 °F -5.1 °F 83% 30.50 in 7.0 mi WNW 9.2 mph - 0.00 in   Overcast
9:54 AM -2.0 °F -19.6 °F -6.0 °F 83% 30.51 in 10.0 mi West 11.5 mph - N/A   Partly Cloudy
10:54 AM -2.0 °F -17.7 °F -5.1 °F 87% 30.53 in 10.0 mi West 9.2 mph - N/A   Clear
11:54 AM -2.0 °F -13.9 °F -5.1 °F 87% 30.54 in 10.0 mi West 5.8 mph - N/A   Clear
12:54 PM -0.0 °F -11.6 °F -6.0 °F 76% 30.52 in 10.0 mi West 5.8 mph - N/A   Clear
1:54 PM 3.9 °F -3.4 °F -5.1 °F 66% 30.49 in 10.0 mi Variable 3.5 mph - N/A   Clear
2:54 PM 1.9 °F - -6.0 °F 69% 30.49 in 10.0 mi Calm Calm - N/A   Clear
3:54 PM 3.9 °F - -5.1 °F 66% 30.48 in 10.0 mi Calm Calm - N/A   Clear
4:54 PM 1.9 °F -5.6 °F -6.0 °F 69% 30.47 in 10.0 mi NNW 3.5 mph - N/A   Clear
5:54 PM 1.0 °F - -6.0 °F 72% 30.47 in 10.0 mi Calm Calm - N/A   Clear
6:54 PM -0.0 °F - -6.0 °F 76% 30.45 in 10.0 mi Calm Calm - N/A   Mostly Cloudy
7:54 PM 1.9 °F - -4.0 °F 76% 30.43 in 10.0 mi Calm Calm - N/A   Overcast
8:54 PM 1.9 °F - -2.9 °F 80% 30.42 in 10.0 mi Calm Calm - N/A   Overcast
9:54 PM 1.9 °F - -2.0 °F 83% 30.42 in 10.0 mi Calm Calm - N/A   Overcast
10:54 PM 3.0 °F - -2.0 °F 80% 30.42 in 10.0 mi Calm Calm - N/A   Overcast
11:54 PM 3.9 °F - -0.9 °F 80% 30.43 in 10.0 mi Calm Calm - N/A   Overcast